W5TUX Weather Reports


time (UTC)temp
C
wind
direction
speed
KPH
gust
KPH
rain 1hr
cm
rain 24hr
cm
rain mn
cm
humidity
%
barometer
mb
20260510111056 17 183 1.6 1.6 0.00 0.00 0.00 99 1018.9
20260510110553 17 167 0.0 1.6 0.00 0.00 0.00 99 1018.9
20260510110049 17 112 0.0 0.0 0.00 0.00 0.00 99 1018.5
20260510105544 17 179 1.6 1.6 0.00 0.00 0.00 99 1018.8
20260510105040 17 125 0.0 1.6 0.00 0.00 0.00 99 1018.9
20260510104537 17 115 1.6 1.6 0.00 0.00 0.00 99 1019.0
20260510104033 17 95 0.0 1.6 0.00 0.00 0.00 99 1018.8
20260510103531 17 186 1.6 1.6 0.00 0.00 0.00 99 1018.8
20260510103026 17 138 0.0 1.6 0.00 0.00 0.00 99 1018.7
20260510102522 17 190 0.0 0.0 0.00 0.00 0.00 99 1018.4
20260510102019 17 307 0.0 0.0 0.00 0.00 0.00 99 1018.3
20260510101516 17 107 3.2 4.8 0.00 0.00 0.00 99 1018.1
20260510101015 17 130 4.8 6.4 0.00 0.00 0.00 99 1018.2
20260510100510 17 114 3.2 3.2 0.00 0.00 0.00 99 1018.5
20260510100008 17 134 4.8 9.7 0.00 0.00 0.00 99 1018.8
20260510095503 17 109 3.2 4.8 0.00 0.00 0.00 99 1018.7
20260510095002 17 72 1.6 3.2 0.00 0.00 0.00 98 1018.9
20260510094457 17 79 1.6 3.2 0.00 0.00 0.00 98 1018.8
20260510093953 17 75 6.4 9.7 0.00 0.00 0.00 98 1018.5
20260510093449 17 26 3.2 6.4 0.00 0.00 0.00 97 1019.0
20260510092945 17 122 3.2 3.2 0.00 0.00 0.00 95 1018.5
20260510092442 17 93 8.0 11.3 0.00 0.00 0.00 94 1017.8
20260510091936 17 62 11.3 14.5 0.00 0.00 0.00 92 1017.6
20260510091434 18 87 4.8 6.4 0.00 0.00 0.00 90 1019.2
20260510090931 18 342 1.6 1.6 0.00 0.00 0.00 89 1019.7
20260510090427 18 111 4.8 6.4 0.00 0.00 0.00 88 1019.5
20260510085923 18 55 8.0 14.5 0.00 0.00 0.00 88 1019.1
20260510085418 18 78 14.5 24.1 0.00 0.00 0.00 87 1018.9
20260510084913 19 132 4.8 6.4 0.00 0.00 0.00 86 1018.9
20260510084411 19 60 3.2 3.2 0.00 0.00 0.00 88 1019.1
20260510083908 20 125 6.4 9.7 0.00 0.00 0.00 92 1018.7
20260510083404 20 247 0.0 0.0 0.00 0.00 0.00 93 1018.2
20260510082900 20 265 0.0 0.0 0.00 0.00 0.00 93 1017.9
20260510082357 20 296 1.6 1.6 0.00 0.00 0.00 94 1017.5
20260510081856 20 112 1.6 3.2 0.00 0.00 0.00 95 1017.3
20260510081352 20 52 4.8 4.8 0.00 0.00 0.00 96 1017.3
20260510080849 21 37 1.6 1.6 0.00 0.00 0.00 96 1017.5
20260510080348 22 55 1.6 3.2 0.00 0.00 0.00 96 1017.5
20260510075845 22 62 1.6 3.2 0.00 0.00 0.00 96 1017.4
20260510075343 22 78 1.6 1.6 0.00 0.00 0.00 96 1017.4
20260510074839 22 86 1.6 3.2 0.00 0.00 0.00 96 1017.4
20260510074337 22 66 1.6 3.2 0.00 0.00 0.00 96 1017.1
20260510073833 22 99 0.0 0.0 0.00 0.00 0.00 96 1016.6
20260510073323 22 206 1.6 1.6 0.00 0.00 0.00 95 1016.0
20260510072820 22 111 0.0 1.6 0.00 0.00 0.00 95 1015.8
20260510072317 22 49 1.6 1.6 0.00 0.00 0.00 95 1015.7
20260510071813 22 146 3.2 3.2 0.00 0.00 0.00 95 1015.9
20260510071308 22 153 3.2 4.8 0.00 0.00 0.00 95 1015.4
20260510070808 22 45 4.8 6.4 0.00 0.00 0.00 94 1015.5
20260510070304 22 133 4.8 6.4 0.00 0.00 0.00 94 1015.3
20260510065804 22 115 3.2 6.4 0.00 0.00 0.00 94 1015.7
20260510065301 22 84 6.4 6.4 0.00 0.00 0.00 93 1015.8
20260510064758 23 119 4.8 6.4 0.00 0.00 0.00 91 1016.0
20260510064256 23 47 6.4 6.4 0.00 0.00 0.00 88 1017.0
20260510063751 23 296 1.6 3.2 0.00 0.00 0.00 87 1017.5
20260510063248 23 184 3.2 4.8 0.00 0.00 0.00 87 1017.5
20260510062745 23 279 4.8 4.8 0.00 0.00 0.00 87 1017.6
20260510062241 23 252 0.0 0.0 0.00 0.00 0.00 88 1017.8
20260510061736 23 314 1.6 1.6 0.00 0.00 0.00 88 1017.7
20260510061233 23 93 0.0 1.6 0.00 0.00 0.00 88 1017.5
20260510060729 23 103 1.6 1.6 0.00 0.00 0.00 88 1017.5
20260510060226 23 61 1.6 3.2 0.00 0.00 0.00 87 1017.6
20260510055723 23 354 0.0 0.0 0.00 0.00 0.00 87 1017.6
20260510055222 23 345 0.0 0.0 0.00 0.00 0.00 88 1017.1
20260510054721 23 342 0.0 0.0 0.00 0.00 0.00 87 1016.5
20260510054217 23 173 0.0 0.0 0.00 0.00 0.00 87 1015.7
20260510053711 23 352 1.6 1.6 0.00 0.00 0.00 87 1015.4
20260510053208 23 31 1.6 1.6 0.00 0.00 0.00 86 1015.1
20260510052703 23 54 3.2 3.2 0.00 0.00 0.00 86 1015.0
20260510052200 23 132 4.8 6.4 0.00 0.00 0.00 86 1015.0
20260510051655 23 69 3.2 4.8 0.00 0.00 0.00 85 1015.0
20260510051152 23 75 3.2 6.4 0.00 0.00 0.00 85 1014.6
20260510050650 23 113 3.2 3.2 0.00 0.00 0.00 84 1014.7
20260510050147 23 90 1.6 3.2 0.00 0.00 0.00 83 1014.5
20260510045643 23 56 1.6 1.6 0.00 0.00 0.00 83 1014.5
20260510045140 23 21 4.8 4.8 0.00 0.00 0.00 82 1014.5
20260510044636 23 147 1.6 3.2 0.00 0.00 0.00 81 1014.6
20260510044134 23 53 4.8 6.4 0.00 0.00 0.00 80 1014.5
20260510043629 23 78 3.2 4.8 0.00 0.00 0.00 79 1014.2
20260510043126 23 76 6.4 9.7 0.00 0.00 0.00 78 1014.2
20260510042624 23 78 3.2 4.8 0.00 0.00 0.00 78 1014.3
20260510042119 23 80 3.2 3.2 0.00 0.00 0.00 77 1014.3
20260510041617 23 169 1.6 3.2 0.00 0.00 0.00 78 1014.3
20260510041115 23 104 4.8 9.7 0.00 0.00 0.00 78 1014.1
20260510040612 23 106 1.6 1.6 0.00 0.00 0.00 77 1014.2
20260510040108 23 53 3.2 3.2 0.00 0.00 0.00 77 1014.2
20260510035604 23 156 1.6 1.6 0.00 0.00 0.00 77 1014.2
20260510035103 23 131 3.2 3.2 0.00 0.00 0.00 77 1014.3
20260510034601 23 152 1.6 3.2 0.00 0.00 0.00 77 1014.5
20260510034058 23 127 0.0 1.6 0.00 0.00 0.00 77 1014.7
20260510033555 23 115 3.2 3.2 0.00 0.00 0.00 77 1014.6
20260510033052 23 120 0.0 1.6 0.00 0.00 0.00 77 1014.5
20260510032549 23 141 1.6 1.6 0.00 0.00 0.00 76 1014.6
20260510032044 23 102 1.6 3.2 0.00 0.00 0.00 76 1014.6
20260510031544 23 86 1.6 1.6 0.00 0.00 0.00 75 1014.4
20260510031041 24 126 4.8 4.8 0.00 0.00 0.00 75 1014.4
20260510030536 24 98 1.6 1.6 0.00 0.00 0.00 74 1014.5
20260510030034 24 90 3.2 3.2 0.00 0.00 0.00 74 1014.5
20260510025531 24 113 1.6 3.2 0.00 0.00 0.00 73 1014.4
20260510025028 24 124 4.8 4.8 0.00 0.00 0.00 73 1014.4
20260510024525 24 103 3.2 3.2 0.00 0.00 0.00 72 1014.4
20260510024021 25 70 0.0 1.6 0.00 0.00 0.00 72 1014.4
20260510023517 25 93 1.6 1.6 0.00 0.00 0.00 71 1014.5
20260510023015 25 107 1.6 1.6 0.00 0.00 0.00 71 1014.6
20260510022514 25 134 1.6 1.6 0.00 0.00 0.00 70 1014.5
20260510022014 25 99 1.6 1.6 0.00 0.00 0.00 70 1014.3
20260510021511 25 146 3.2 4.8 0.00 0.00 0.00 70 1014.3
20260510021008 25 125 0.0 0.0 0.00 0.00 0.00 70 1014.3
20260510020502 25 120 3.2 3.2 0.00 0.00 0.00 69 1014.3
20260510015958 25 118 1.6 1.6 0.00 0.00 0.00 69 1014.1
20260510015454 25 93 0.0 1.6 0.00 0.00 0.00 68 1014.1
20260510014949 25 109 0.0 0.0 0.00 0.00 0.00 68 1013.9
20260510014447 25 110 0.0 1.6 0.00 0.00 0.00 68 1014.1
20260510013944 25 101 1.6 1.6 0.00 0.00 0.00 67 1014.1
20260510013438 25 30 3.2 3.2 0.00 0.00 0.00 66 1013.8
20260510012934 26 74 0.0 0.0 0.00 0.00 0.00 66 1013.9
20260510012429 26 77 1.6 1.6 0.00 0.00 0.00 65 1013.9
20260510011924 26 72 1.6 1.6 0.00 0.00 0.00 65 1013.9
20260510011419 26 61 1.6 3.2 0.00 0.00 0.00 64 1013.7
20260510010916 26 93 3.2 4.8 0.00 0.00 0.00 63 1013.7
20260510010413 26 200 1.6 1.6 0.00 0.00 0.00 63 1013.6
20260510005910 26 96 1.6 1.6 0.00 0.00 0.00 62 1013.7
20260510005406 26 123 3.2 4.8 0.00 0.00 0.00 61 1013.6
20260510004903 27 159 3.2 3.2 0.00 0.00 0.00 61 1013.5
20260510004401 27 161 0.0 0.0 0.00 0.00 0.00 60 1013.4
20260510003858 27 145 1.6 1.6 0.00 0.00 0.00 58 1013.4
20260510003355 27 122 1.6 3.2 0.00 0.00 0.00 57 1013.6
20260510002854 27 33 3.2 4.8 0.00 0.00 0.00 56 1013.5
20260510002352 27 121 4.8 6.4 0.00 0.00 0.00 55 1013.4
20260510001848 27 54 3.2 4.8 0.00 0.00 0.00 54 1013.5
20260510001346 27 46 3.2 3.2 0.00 0.00 0.00 53 1013.4
20260510000842 28 75 0.0 1.6 0.00 0.00 0.00 52 1013.4
20260510000341 28 64 3.2 6.4 0.00 0.00 0.00 52 1013.6
20260509235836 28 170 1.6 1.6 0.00 0.00 0.00 56 1013.5
20260509235332 28 86 0.0 1.6 0.00 0.00 0.00 57 1013.5
20260509234828 28 85 1.6 1.6 0.00 0.00 0.00 57 1013.5
20260509234326 28 31 3.2 3.2 0.00 0.00 0.00 56 1013.7
20260509233824 28 117 3.2 4.8 0.00 0.00 0.00 55 1013.6
20260509233321 28 40 3.2 3.2 0.00 0.00 0.00 57 1013.8
20260509232816 28 106 0.0 1.6 0.00 0.00 0.00 57 1013.7
20260509232314 28 54 4.8 4.8 0.00 0.00 0.00 58 1013.7
20260509231810 28 43 3.2 4.8 0.00 0.00 0.00 58 1013.6
20260509231307 28 123 6.4 6.4 0.00 0.00 0.00 58 1013.7
20260509230805 28 102 4.8 4.8 0.00 0.00 0.00 57 1013.5
20260509230302 28 123 4.8 6.4 0.00 0.00 0.00 56 1013.7
20260509225757 28 86 1.6 3.2 0.00 0.00 0.00 56 1013.6
20260509225253 28 156 1.6 3.2 0.00 0.00 0.00 56 1013.7
20260509224749 28 192 1.6 3.2 0.00 0.00 0.00 57 1013.6
20260509224246 28 85 3.2 3.2 0.00 0.00 0.00 57 1013.8
20260509223743 28 327 4.8 4.8 0.00 0.00 0.00 57 1013.5
20260509223240 28 86 0.0 1.6 0.00 0.00 0.00 58 1013.8
20260509222737 28 130 1.6 1.6 0.00 0.00 0.00 59 1013.6
20260509222232 28 145 3.2 4.8 0.00 0.00 0.00 58 1013.3
20260509221728 28 158 3.2 4.8 0.00 0.00 0.00 58 1013.4
20260509221225 28 64 8.0 11.3 0.00 0.00 0.00 58 1013.3
20260509220720 28 68 1.6 1.6 0.00 0.00 0.00 60 1013.3
20260509220217 28 108 9.7 12.9 0.00 0.00 0.00 59 1013.4
20260509215713 28 122 3.2 6.4 0.00 0.00 0.00 61 1013.4
20260509215210 28 200 3.2 3.2 0.00 0.00 0.00 61 1013.5
20260509214707 29 108 6.4 11.3 0.00 0.00 0.00 59 1013.6
20260509214204 28 164 1.6 3.2 0.00 0.00 0.00 59 1013.5
20260509213700 29 142 3.2 4.8 0.00 0.00 0.00 60 1013.6
20260509213156 28 189 0.0 1.6 0.00 0.00 0.00 59 1013.9
20260509212654 29 86 4.8 6.4 0.00 0.00 0.00 60 1013.8
20260509212150 29 159 1.6 3.2 0.00 0.00 0.00 61 1013.8
20260509211646 28 208 4.8 6.4 0.00 0.00 0.00 60 1013.8
20260509211143 28 77 0.0 1.6 0.00 0.00 0.00 63 1013.8
20260509210640 28 224 3.2 6.4 0.00 0.00 0.00 61 1014.2
20260509210137 29 10 1.6 3.2 0.00 0.00 0.00 59 1014.1
20260509205632 28 63 0.0 0.0 0.00 0.00 0.00 62 1014.2
20260509205127 28 122 6.4 9.7 0.00 0.00 0.00 60 1014.2
20260509204623 29 57 1.6 3.2 0.00 0.00 0.00 61 1014.3
20260509204120 28 64 3.2 6.4 0.00 0.00 0.00 62 1014.2
20260509203616 29 78 8.0 9.7 0.00 0.00 0.00 60 1014.4
20260509203109 29 145 3.2 4.8 0.00 0.00 0.00 61 1014.5
20260509202608 29 46 9.7 12.9 0.00 0.00 0.00 61 1014.7
20260509202104 29 192 1.6 3.2 0.00 0.00 0.00 62 1014.4
20260509201559 28 71 6.4 9.7 0.00 0.00 0.00 62 1014.4
20260509201058 29 95 4.8 6.4 0.00 0.00 0.00 63 1014.5
20260509200557 29 32 1.6 3.2 0.00 0.00 0.00 62 1014.3
20260509200053 30 79 3.2 3.2 0.00 0.00 0.00 59 1014.6
20260509195548 30 97 0.0 1.6 0.00 0.00 0.00 61 1014.7
20260509195043 30 65 1.6 1.6 0.00 0.00 0.00 61 1014.7
20260509194539 30 299 1.6 1.6 0.00 0.00 0.00 62 1014.7
20260509194037 30 76 0.0 1.6 0.00 0.00 0.00 61 1014.8
20260509193536 30 65 3.2 4.8 0.00 0.00 0.00 58 1014.6
20260509193033 29 51 3.2 3.2 0.00 0.00 0.00 63 1014.7
20260509192530 30 55 1.6 3.2 0.00 0.00 0.00 59 1015.0
20260509192025 31 95 0.0 1.6 0.00 0.00 0.00 59 1014.7
20260509191519 30 142 0.0 0.0 0.00 0.00 0.00 60 1014.8
20260509191015 29 73 0.0 1.6 0.00 0.00 0.00 63 1014.9
20260509190512 30 160 1.6 1.6 0.00 0.00 0.00 60 1014.8
20260509190010 29 239 1.6 1.6 0.00 0.00 0.00 61 1015.0
20260509185507 30 38 6.4 9.7 0.00 0.00 0.00 62 1015.1
20260509185004 30 128 6.4 6.4 0.00 0.00 0.00 63 1015.0
20260509184503 29 54 3.2 4.8 0.00 0.00 0.00 61 1014.9
20260509183958 29 72 1.6 1.6 0.00 0.00 0.00 63 1015.1
20260509183452 28 124 0.0 0.0 0.00 0.00 0.00 64 1015.1
20260509182949 30 76 3.2 3.2 0.00 0.00 0.00 62 1015.0
20260509182445 30 78 0.0 0.0 0.00 0.00 0.00 59 1015.2
20260509181943 30 80 1.6 3.2 0.00 0.00 0.00 60 1015.4
20260509181441 29 122 4.8 9.7 0.00 0.00 0.00 61 1015.2
20260509180938 31 210 3.2 3.2 0.00 0.00 0.00 59 1015.1
20260509180433 30 162 0.0 1.6 0.00 0.00 0.00 60 1015.3
20260509175931 30 141 1.6 3.2 0.00 0.00 0.00 59 1015.4
20260509175427 30 62 0.0 0.0 0.00 0.00 0.00 61 1015.4
20260509174923 30 130 0.0 0.0 0.00 0.00 0.00 63 1015.6
20260509174419 29 70 0.0 1.6 0.00 0.00 0.00 65 1015.5
20260509173915 30 269 1.6 1.6 0.00 0.00 0.00 64 1015.7
20260509173415 30 333 1.6 1.6 0.00 0.00 0.00 62 1015.5
20260509172912 30 287 1.6 1.6 0.00 0.00 0.00 65 1015.9
20260509172408 30 84 0.0 0.0 0.00 0.00 0.00 62 1015.7
20260509171904 29 61 0.0 1.6 0.00 0.00 0.00 64 1015.9
20260509171400 27 333 1.6 1.6 0.00 0.00 0.00 68 1015.8
20260509170857 28 111 0.0 1.6 0.00 0.00 0.00 69 1015.9
20260509170353 28 115 1.6 1.6 0.00 0.00 0.00 68 1015.9
20260509165848 26 216 1.6 1.6 0.00 0.00 0.00 73 1016.0
20260509165343 27 17 3.2 3.2 0.00 0.00 0.00 70 1015.8
20260509164839 27 73 1.6 1.6 0.00 0.00 0.00 72 1015.9
20260509164335 27 279 3.2 3.2 0.00 0.00 0.00 71 1016.1
20260509163832 27 73 1.6 3.2 0.00 0.00 0.00 70 1016.0
20260509163328 26 62 0.0 0.0 0.00 0.00 0.00 75 1016.0
20260509162827 26 128 1.6 1.6 0.00 0.00 0.00 74 1016.0
20260509162320 25 273 0.0 1.6 0.00 0.00 0.00 77 1015.9
20260509161817 25 206 1.6 1.6 0.00 0.00 0.00 78 1016.0
20260509161314 25 320 3.2 3.2 0.00 0.00 0.00 76 1015.9
20260509160809 25 107 1.6 3.2 0.00 0.00 0.00 75 1015.9
20260509160305 25 271 0.0 1.6 0.00 0.00 0.00 78 1015.8
20260509155801 25 188 1.6 3.2 0.00 0.00 0.00 78 1016.0
20260509155257 24 118 0.0 0.0 0.00 0.00 0.00 81 1015.8
20260509154753 24 294 1.6 1.6 0.00 0.00 0.00 81 1015.9
20260509154250 23 252 1.6 1.6 0.00 0.00 0.00 82 1016.1
20260509153747 24 314 1.6 1.6 0.00 0.00 0.00 81 1015.8
20260509153243 23 121 0.0 1.6 0.00 0.00 0.00 82 1015.8
20260509152740 24 278 3.2 3.2 0.00 0.00 0.00 82 1015.9
20260509152236 23 87 0.0 0.0 0.00 0.00 0.00 85 1016.0
20260509151734 23 246 1.6 3.2 0.00 0.00 0.00 85 1016.0
20260509151230 23 265 1.6 1.6 0.00 0.00 0.00 86 1016.0
20260509150728 22 221 0.0 0.0 0.00 0.00 0.00 87 1016.0
20260509150226 22 221 1.6 1.6 0.00 0.00 0.00 88 1016.0
20260509145722 22 292 1.6 1.6 0.00 0.00 0.00 88 1016.0
20260509145217 22 208 1.6 1.6 0.00 0.00 0.00 87 1016.0
20260509144714 22 219 0.0 1.6 0.00 0.00 0.00 87 1015.9
20260509144211 22 311 1.6 1.6 0.00 0.00 0.00 87 1016.0
20260509143708 22 101 0.0 0.0 0.00 0.00 0.00 88 1015.8
20260509143206 22 263 0.0 1.6 0.00 0.00 0.00 89 1015.9
20260509142701 22 176 3.2 3.2 0.00 0.00 0.00 89 1015.7
20260509142158 21 227 1.6 1.6 0.00 0.00 0.00 90 1015.7
20260509141653 21 320 1.6 3.2 0.00 0.00 0.00 93 1015.7
20260509141150 21 260 1.6 1.6 0.00 0.00 0.00 96 1015.7
20260509140647 21 301 1.6 1.6 0.00 0.00 0.00 98 1015.7
20260509140145 21 268 1.6 3.2 0.00 0.00 0.00 98 1015.4
20260509135642 21 308 1.6 1.6 0.00 0.00 0.00 99 1015.8
20260509135140 21 198 1.6 1.6 0.00 0.00 0.00 99 1015.6
20260509134636 21 198 0.0 0.0 0.00 0.00 0.00 99 1015.6
20260509134134 21 298 0.0 1.6 0.00 0.00 0.00 99 1015.6
20260509133631 21 186 0.0 0.0 0.00 0.00 0.00 99 1015.3
20260509133128 21 140 0.0 0.0 0.00 0.00 0.00 99 1015.3
20260509132626 21 269 0.0 0.0 0.00 0.00 0.00 99 1015.3
20260509132125 21 187 0.0 0.0 0.00 0.00 0.00 99 1015.5
20260509131620 21 140 0.0 0.0 0.00 0.00 0.00 99 1015.5
20260509131118 20 246 0.0 1.6 0.00 0.00 0.00 99 1015.4
20260509130613 20 205 0.0 0.0 0.00 0.00 0.00 99 1015.4
20260509130110 20 105 1.6 1.6 0.00 0.00 0.00 99 1015.4
20260509125606 20 71 0.0 1.6 0.00 0.00 0.00 99 1015.4
20260509125103 20 80 0.0 0.0 0.00 0.00 0.00 99 1015.6
20260509124559 20 213 0.0 0.0 0.00 0.00 0.00 99 1015.3
20260509124057 20 51 0.0 1.6 0.00 0.00 0.00 99 1015.3
20260509123555 20 121 0.0 0.0 0.00 0.00 0.00 99 1015.4
20260509123051 20 161 0.0 0.0 0.00 0.00 0.00 99 1015.4
20260509122547 20 102 0.0 0.0 0.00 0.00 0.00 99 1015.3
20260509122044 20 94 0.0 0.0 0.00 0.00 0.00 99 1015.4
20260509121541 20 158 0.0 0.0 0.00 0.00 0.00 99 1015.2
20260509121038 20 118 0.0 0.0 0.00 0.00 0.00 99 1015.2
20260509120536 20 151 0.0 0.0 0.00 0.00 0.00 99 1015.2
20260509120035 20 106 0.0 0.0 0.00 0.00 0.00 99 1015.2
20260509115531 20 199 1.6 1.6 0.00 0.00 0.00 99 1015.0
20260509115029 20 113 1.6 1.6 0.00 0.00 0.00 99 1015.0
20260509114527 20 126 1.6 1.6 0.00 0.00 0.00 99 1014.9
20260509114026 20 142 0.0 1.6 0.00 0.00 0.00 99 1015.0
20260509113523 20 91 0.0 0.0 0.00 0.00 0.00 99 1014.9
20260509113021 20 97 0.0 0.0 0.00 0.00 0.00 99 1014.8
20260509112517 20 148 0.0 0.0 0.00 0.00 0.00 99 1014.8
20260509112014 20 108 6.4 6.4 0.00 0.00 0.00 99 1014.4